DGVMK EDWN-EDDG

Flight info

Callsign DGVMK
Flight time N/A
Altitude 9000
Route DCT IBAGU DCT OSN/N0175F080
Aircraft BT36/L-BDFGLORY/S

Departure

Time N/A
Airport Flugplatz Nordhorn-Lingen (EDWN)

Arrival

Time 2026-04-21 14:33
Airport Münster Osnabrück Airport (EDDG)
Time Latitude Longitude Altitude Speed Heading
2026-04-21 14:33 52.13106 7.68242 161 ft 0 kts 98°
2026-04-21 14:38 52.13106 7.68243 161 ft 2 kts 100°
2026-04-21 14:38 52.13144 7.68276 161 ft 11 kts 358°
2026-04-21 14:39 52.13209 7.68316 161 ft 11 kts 45°
2026-04-21 14:39 52.13315 7.68291 162 ft 23 kts 345°
2026-04-21 14:39 52.13445 7.68374 163 ft 38 kts 70°
2026-04-21 14:39 52.13612 7.69185 227 ft 102 kts 69°
2026-04-21 14:40 52.13860 7.70456 430 ft 133 kts 70°
2026-04-21 14:40 52.14127 7.71957 795 ft 139 kts 79°
2026-04-21 14:40 52.13991 7.73485 1278 ft 143 kts 107°
2026-04-21 14:40 52.13414 7.74862 1649 ft 150 kts 129°
2026-04-21 14:41 52.12509 7.75794 1937 ft 160 kts 152°
2026-04-21 14:41 52.11787 7.76120 1646 ft 76 kts 149°
2026-04-21 14:41 52.11267 7.77287 530 ft 119 kts 119°
2026-04-21 14:41 52.10928 7.78306 369 ft 111 kts 45°
2026-04-21 14:42 52.11346 7.77735 169 ft 61 kts 301°
2026-04-21 14:42 52.11386 7.77567 170 ft 16 kts 114°
2026-04-21 14:42 52.11313 7.78150 210 ft 84 kts 104°
2026-04-21 14:42 52.10936 7.79119 368 ft 107 kts 109°
2026-04-21 14:43 52.11033 7.80342 507 ft 123 kts 58°
2026-04-21 14:43 52.11523 7.81565 491 ft 139 kts 69°
2026-04-21 14:43 52.11511 7.82993 1203 ft 126 kts 111°
2026-04-21 14:43 52.10845 7.83722 1997 ft 106 kts 160°